Weather History for South Lake Tahoe, CA

Change the Weather History Date:

Wednesday, August 6, 2014

  Actual Average Record
Temperature  
Mean Temperature 63 °F 62 °F  
Max Temperature 76 °F 82 °F 93 °F (1981)
Min Temperature 50 °F 42 °F 31 °F (1969)
Degree Days  
Heating Degree Days 2 4  
Month to date heating degree days 15 24  
Since 1 June heating degree days 239 472  
Since 1 July heating degree days 29 162  
Cooling Degree Days 0 1  
Month to date cooling degree days 7 6  
Year to date cooling degree days 94 25  
Since 1 June cooling degree days 94 25  
Growing Degree Days 10 (Base 50)    
Moisture  
Dew Point 47 °F    
Average Humidity 60    
Maximum Humidity 86    
Minimum Humidity 33    
Precipitation  
Precipitation 0.00 in - 0.01 in (1941)
Month to date precipitation 0.37  
Year to date precipitation 13.27  
Sea Level Pressure  
Sea Level Pressure 30.10 in    
Wind  
Wind Speed 4 mph (SSE)    
Max Wind Speed 13 mph    
Max Gust Speed 19 mph    
Visibility 10 miles    
Events      
T = Trace of Precipitation, MM = Missing Value Source: NWS Daily Summary

Daily Weather History Graph

Daily Weather History Graph

Search for Another Location

Airport:

Trip Planner

Search our weather history database for the weather conditions in past years. The results will help you decide how hot, cold, wet, or windy it might be!

Date:

Astronomy

Aug. 06, 2014 Rise Set
Actual Time 6:05 AM PDT 8:05 PM PDT
Civil Twilight 5:36 AM PDT 8:34 PM PDT
Nautical Twilight 5:00 AM PDT 9:10 PM PDT
Astronomical Twilight 4:22 AM PDT 9:48 PM PDT
Moon 4:27 PM PDT (8/6) 1:45 AM PDT (8/6)
Length of Visible Light 14h 58m
Length of Day
14h 00m
Waxing Gibbous, 78% of the Moon is Illuminated
Aug 6
Waxing Gibbous
Aug 10
Full
Aug 17
Last Quarter
Aug 25
New
Sep 2
First Quarter

Hourly Weather History & Observations

Time (PDT) Temp. Dew Point Humidity Pressure Visibility Wind Dir Wind Speed Gust Speed Precip Events Conditions
12:53 AM 48.9 °F 45.0 °F 86% 30.13 in 10.0 mi South 5.8 mph - N/A   Clear
1:53 AM 50.0 °F 45.0 °F 83% 30.12 in 10.0 mi Calm Calm - N/A   Mostly Cloudy
2:53 AM 50.0 °F 45.0 °F 83% 30.10 in 10.0 mi South 4.6 mph - N/A   Overcast
3:53 AM 50.0 °F 46.0 °F 86% 30.11 in 10.0 mi Calm Calm - N/A   Overcast
4:53 AM 50.0 °F 45.0 °F 83% 30.11 in 10.0 mi Calm Calm - N/A   Overcast
5:53 AM 50.0 °F 46.0 °F 86% 30.13 in 10.0 mi South 3.5 mph - N/A   Overcast
6:53 AM 51.1 °F 46.0 °F 83% 30.13 in 10.0 mi South 4.6 mph - N/A   Partly Cloudy
7:53 AM 54.0 °F 46.9 °F 77% 30.14 in 10.0 mi South 3.5 mph - N/A   Clear
8:53 AM 60.1 °F 46.9 °F 62% 30.12 in 10.0 mi Calm Calm - N/A   Clear
10:53 AM 69.1 °F 43.0 °F 39% 30.09 in 10.0 mi Variable 4.6 mph - N/A   Partly Cloudy
11:53 AM 72.0 °F 45.0 °F 38% 30.10 in 10.0 mi North 3.5 mph - N/A   Scattered Clouds
12:53 PM 70.0 °F 50.0 °F 49% 30.11 in 10.0 mi Variable 3.5 mph - N/A   Mostly Cloudy
1:53 PM 73.0 °F 44.1 °F 35% 30.09 in 10.0 mi Variable 5.8 mph - N/A   Partly Cloudy
2:53 PM 73.9 °F 44.1 °F 34% 30.08 in 10.0 mi Variable 5.8 mph - N/A   Clear
3:53 PM 73.9 °F 43.0 °F 33% 30.07 in 10.0 mi NNE 9.2 mph - N/A   Clear
4:53 PM 73.9 °F 43.0 °F 33% 30.05 in 10.0 mi Variable 3.5 mph - N/A   Clear
5:53 PM 69.1 °F 48.9 °F 49% 30.08 in 10.0 mi NNE 9.2 mph - N/A   Clear
6:53 PM 68.0 °F 51.1 °F 55% 30.08 in 10.0 mi North 5.8 mph - N/A   Clear
7:53 PM 64.9 °F 52.0 °F 63% 30.09 in 10.0 mi South 4.6 mph - N/A   Scattered Clouds
8:53 PM 62.1 °F 52.0 °F 70% 30.10 in 10.0 mi South 3.5 mph - N/A   Clear
9:53 PM 59.0 °F 50.0 °F 72% 30.10 in 10.0 mi Calm Calm - N/A   Clear
10:53 PM 57.9 °F 50.0 °F 75% 30.09 in 10.0 mi South 3.5 mph - N/A   Clear
11:53 PM 55.0 °F 48.0 °F 77% 30.09 in 10.0 mi Calm Calm - N/A   Clear